Miles City, MT

7:47 AM MDT on March 27, 2017 (GMT -0600)
Wiley

Weather History for KMLS - June, 2013

Change the Weather History Date:

Saturday, June 29, 2013

  Actual Average Record
Temperature  
Mean Temperature 73 °F 70 °F  
Max Temperature 86 °F 84 °F 104 °F (1961)
Min Temperature 59 °F 56 °F 43 °F (1945)
Degree Days  
Heating Degree Days 0 1  
Month to date heating degree days 59 87  
Since 1 June heating degree days 59 87  
Since 1 July heating degree days 7147 7636  
Cooling Degree Days 8 6  
Month to date cooling degree days 84 101  
Year to date cooling degree days 97 121  
Since 1 June cooling degree days 84 101  
Growing Degree Days 22 (Base 50)    
Moisture  
Dew Point 52 °F    
Average Humidity 54    
Maximum Humidity 78    
Minimum Humidity 29    
Precipitation  
Precipitation 0.00 in 0.07 in 1.75 in (1982)
Month to date precipitation 2.51 2.45  
Year to date precipitation 11.03 7.15  
Sea Level Pressure  
Sea Level Pressure 30.11 in    
Wind  
Wind Speed 6 mph (ENE)    
Max Wind Speed 17 mph    
Max Gust Speed 21 mph    
Visibility 10 miles    
Events      
T = Trace of Precipitation, MM = Missing Value Source: NWS Daily Summary

Daily Weather History Graph

Daily Weather History Graph

Search for Another Location

Airport or City:

Trip Planner

Search our weather history database for the weather conditions in past years. The results will help you decide how hot, cold, wet, or windy it might be!

Date:

Astronomy

Jun. 29, 2013 Rise Set
Actual Time 5:14 AM MDT 9:00 PM MDT
Civil Twilight 4:35 AM MDT 9:38 PM MDT
Nautical Twilight 3:42 AM MDT 10:31 PM MDT
Astronomical Twilight 2:27 AM MDT 11:45 PM MDT
Moon 12:05 AM MDT (6/29) 12:55 PM MDT (6/29)
Length of Visible Light 17h 03m
Length of Day
15h 46m
Waning Gibbous, 55% of the Moon is Illuminated
Jun 29
Waning Gibbous
Jun 29
Last Quarter
Jul 8
New
Jul 15
First Quarter
Jul 22
Full

Hourly Weather History & Observations

Time (MDT) Temp. Dew Point Humidity Pressure Visibility Wind Dir Wind Speed Gust Speed Precip Events Conditions
12:53 AM 64.9 °F 54.0 °F 68% 30.14 in 10.0 mi NE 6.9 mph - N/A   Clear
1:53 AM 63.0 °F 53.1 °F 70% 30.14 in 10.0 mi NNE 6.9 mph - N/A   Clear
2:53 AM 62.1 °F 53.1 °F 72% 30.14 in 10.0 mi NNE 6.9 mph - N/A   Clear
3:53 AM 62.1 °F 53.1 °F 72% 30.14 in 10.0 mi NE 3.5 mph - N/A   Clear
4:53 AM 60.1 °F 53.1 °F 78% 30.14 in 10.0 mi NE 5.8 mph - N/A   Clear
5:53 AM 60.1 °F 54.0 °F 80% 30.15 in 10.0 mi North 4.6 mph - N/A   Clear
6:53 AM 64.9 °F 55.0 °F 70% 30.15 in 10.0 mi NNE 4.6 mph - N/A   Clear
7:53 AM 70.0 °F 55.0 °F 59% 30.14 in 10.0 mi East 3.5 mph - N/A   Clear
8:53 AM 73.9 °F 54.0 °F 50% 30.14 in 10.0 mi East 3.5 mph - N/A   Clear
9:53 AM 77.0 °F 55.0 °F 47% 30.13 in 10.0 mi ESE 3.5 mph - N/A   Clear
10:53 AM 79.0 °F 54.0 °F 42% 30.12 in 10.0 mi SE 6.9 mph - N/A   Clear
11:53 AM 82.9 °F 51.1 °F 33% 30.12 in 10.0 mi Variable 5.8 mph - N/A   Clear
12:53 PM 82.9 °F 48.9 °F 31% 30.12 in 10.0 mi ENE 6.9 mph - N/A   Clear
1:53 PM 84.9 °F 48.0 °F 28% 30.11 in 10.0 mi North 8.1 mph - N/A   Clear
2:53 PM 84.0 °F 46.9 °F 27% 30.10 in 10.0 mi East 8.1 mph - N/A   Clear
3:53 PM 84.9 °F 48.0 °F 28% 30.08 in 10.0 mi NE 6.9 mph - N/A   Clear
4:53 PM 84.9 °F 48.0 °F 28% 30.07 in 10.0 mi East 9.2 mph - N/A   Clear
5:53 PM 84.0 °F 48.9 °F 29% 30.06 in 10.0 mi NE 8.1 mph - N/A   Clear
6:53 PM 82.0 °F 51.1 °F 34% 30.04 in 10.0 mi ENE 11.5 mph - N/A   Clear
7:53 PM 78.1 °F 52.0 °F 40% 30.05 in 10.0 mi ENE 9.2 mph - N/A   Clear
8:53 PM 73.9 °F 52.0 °F 46% 30.07 in 10.0 mi NE 8.1 mph - N/A   Clear
9:53 PM 72.0 °F 52.0 °F 49% 30.09 in 10.0 mi East 6.9 mph - N/A   Partly Cloudy
10:53 PM 72.0 °F 52.0 °F 49% 30.09 in 10.0 mi East 6.9 mph - N/A   Clear
11:53 PM 70.0 °F 53.1 °F 55% 30.08 in 10.0 mi ESE 4.6 mph - N/A   Clear